Location: Newark
(52.4787°S, 179.0532°W)
Time: 12:13:01
(UTC+00:00)

ISS - Visible Passes

Search period start: 28 November 2020 00:00
Search period end: 08 December 2020 00:00
Orbit: 418 x 420 km, 51.6° (Epoch: 28 November)

Date Brightness Start Highest point End Pass type
(mag) Time Alt. Az. Time Alt. Az. Time Alt. Az.
01 Dec -1.7 14:02:26 11° N 14:04:28 17° NE 14:06:46 10° E visible
02 Dec -1.4 13:16:29 11° NNE 13:17:09 12° NE 13:18:27 10° ENE visible
03 Dec -2.6 14:03:23 14° NNW 14:05:49 31° NNE 14:08:54 10° E visible
04 Dec -2.3 13:17:18 20° N 13:18:23 23° NNE 13:21:10 10° E visible
05 Dec -1.8 12:31:10 17° NE 12:31:10 17° NE 12:33:15 10° E visible
05 Dec -3.4 14:04:05 11° WNW 14:07:15 52° NNE 14:10:38 10° E visible
06 Dec -3.2 13:17:53 21° NW 13:19:44 41° NNE 13:23:00 10° E visible
07 Dec -2.8 12:31:34 28° N 12:32:14 31° NNE 12:35:19 10° E visible
07 Dec -3.7 14:05:21 10° WNW 14:08:47 73° N 14:12:13 10° E visible
